Location: Burgberg
(50.1428°N, 11.0671°E)
Time: 16:39:08
(UTC+00:00)

Cosmos 1680 Rocket - Pass Details

Date: 26 January 2020
Orbit: 760 x 781 km, 74.1° (Epoch: 20 February)

Event Time Altitude Azimuth Distance (km) Brightness Sun altitude
Exits shadow 04:07:41 11° 181° (S) 2,231 5.8 -27.2°
Maximum altitude 04:12:33 53° 107° (ESE) 961 4.2 -26.4°
Drops below altitude 10° 04:17:43 10° 32° (NNE) 2,343 6.4 -25.6°
Sets 04:20:09 0° 28° (NNE) 3,273 7.1 -25.2°
